Saint-Etienne, France

6:14 PM CET on February 25, 2017 (GMT +0100)
Boutheon

Weather History for LFMH - August, 2013

Change the Weather History Date:

Monday, August 26, 2013

  Actual Average Record
Temperature  
Mean Temperature 58 °F -  
Max Temperature 69 °F 70 °F 98 °F (2010)
Min Temperature 46 °F 51 °F 46 °F (2013)
Degree Days  
Heating Degree Days 8    
Growing Degree Days 8 (Base 50)    
Moisture  
Dew Point 48 °F    
Average Humidity 70    
Maximum Humidity 93    
Minimum Humidity 43    
Precipitation  
Precipitation 0.00 in - - ()
Sea Level Pressure  
Sea Level Pressure 29.94 in    
Wind  
Wind Speed 3 mph ()    
Max Wind Speed 12 mph    
Max Gust Speed -    
Visibility 6.1 miles    
Events      
Averages and records for this station are not official NWS values.
T = Trace of Precipitation, MM = Missing Value Source: Averaged Metar Reports

Daily Weather History Graph

Daily Weather History Graph

Search for Another Location

Airport or City:

Trip Planner

Search our weather history database for the weather conditions in past years. The results will help you decide how hot, cold, wet, or windy it might be!

Date:

Astronomy

Aug. 26, 2013 Rise Set
Actual Time 6:56 AM CEST 8:31 PM CEST
Civil Twilight 6:25 AM CEST 9:02 PM CEST
Nautical Twilight 5:47 AM CEST 9:40 PM CEST
Astronomical Twilight 5:06 AM CEST 10:20 PM CEST
Moon 11:11 PM CEST (8/26) 1:02 PM CEST (8/26)
Length of Visible Light 14h 36m
Length of Day
13h 34m
Waning Gibbous, 69% of the Moon is Illuminated
Aug 26
Waning Gibbous
Aug 28
Last Quarter
Sep 5
New
Sep 12
First Quarter
Sep 19
Full

Hourly Weather History & Observations

Time (CEST) Temp. Dew Point Humidity Pressure Visibility Wind Dir Wind Speed Gust Speed Precip Events Conditions
12:00 AM 55.4 °F 46.4 °F 72% 29.92 in 6.2 mi Calm Calm - N/A   Unknown
12:30 AM 53.6 °F 46.4 °F 77% 29.95 in 6.2 mi East 2.3 mph - N/A   Scattered Clouds
1:00 AM 53.6 °F 46.4 °F 77% 29.95 in 6.2 mi Calm Calm - N/A   Overcast
1:30 AM 53.6 °F 46.4 °F 77% 29.92 in 6.2 mi Calm Calm - N/A   Scattered Clouds
2:00 AM 51.8 °F 46.4 °F 82% 29.92 in 6.2 mi Variable 2.3 mph - N/A   Scattered Clouds
2:30 AM 51.8 °F 46.4 °F 82% 29.92 in 6.2 mi Calm Calm - N/A   Partly Cloudy
3:00 AM 50.0 °F 46.4 °F 87% 29.92 in 6.2 mi Calm Calm - N/A   Unknown
3:30 AM 50.0 °F 46.4 °F 87% 29.92 in 6.2 mi East 2.3 mph - N/A   Unknown
4:00 AM 50.0 °F 44.6 °F 82% 29.92 in 6.2 mi Variable 2.3 mph - N/A   Unknown
4:30 AM 48.2 °F 44.6 °F 87% 29.92 in 6.2 mi South 3.5 mph - N/A   Unknown
5:00 AM 48.2 °F 44.6 °F 87% 29.92 in 6.2 mi Variable 2.3 mph - N/A   Unknown
5:30 AM 48.2 °F 44.6 °F 87% 29.92 in 2.2 mi South 2.3 mph - N/A   Mist
6:00 AM 48.2 °F 44.6 °F 87% 29.92 in - Calm Calm - N/A   Clear
6:30 AM 48.2 °F 44.6 °F 87% 29.95 in 6.2 mi Calm Calm - N/A   Partly Cloudy
7:00 AM 46.4 °F 44.6 °F 93% 29.95 in 6.2 mi SSE 2.3 mph - N/A   Partly Cloudy
7:30 AM 48.2 °F 46.4 °F 93% 29.95 in 6.2 mi South 2.3 mph - N/A   Partly Cloudy
8:00 AM 50.0 °F 46.4 °F 87% 29.95 in 6.2 mi Calm Calm - N/A   Scattered Clouds
8:30 AM 51.8 °F 48.2 °F 88% 29.95 in 6.2 mi Calm Calm - N/A   Mostly Cloudy
9:00 AM 55.4 °F 50.0 °F 82% 29.95 in 6.2 mi Calm Calm - N/A   Mostly Cloudy
9:30 AM 55.4 °F 51.8 °F 88% 29.95 in 6.2 mi Variable 2.3 mph - N/A   Mostly Cloudy
10:00 AM 57.2 °F 50.0 °F 77% 29.95 in 6.2 mi Calm Calm - N/A   Mostly Cloudy
10:30 AM 59.0 °F 50.0 °F 72% 29.95 in 6.2 mi Variable 1.2 mph - N/A   Scattered Clouds
11:00 AM 60.8 °F 50.0 °F 68% 29.95 in 6.2 mi Variable 2.3 mph - N/A   Scattered Clouds
11:30 AM 62.6 °F 50.0 °F 63% 29.95 in 6.2 mi Variable 4.6 mph - N/A   Scattered Clouds
12:00 PM 64.4 °F 50.0 °F 59% 29.95 in 6.2 mi North 5.8 mph - N/A   Scattered Clouds
12:30 PM 64.4 °F 48.2 °F 56% 29.95 in 6.2 mi Variable 5.8 mph - N/A   Mostly Cloudy
1:00 PM 66.2 °F 48.2 °F 52% 29.95 in 6.2 mi North 10.4 mph - N/A   Mostly Cloudy
1:30 PM 66.2 °F 48.2 °F 52% 29.92 in 6.2 mi North 6.9 mph - N/A   Mostly Cloudy
2:00 PM 68.0 °F 48.2 °F 49% 29.92 in 6.2 mi NNW 9.2 mph - N/A   Mostly Cloudy
2:30 PM 69.8 °F 48.2 °F 46% 29.92 in 6.2 mi NNW 10.4 mph - N/A   Scattered Clouds
3:00 PM 69.8 °F 48.2 °F 46% 29.92 in 6.2 mi NNW 9.2 mph - N/A   Mostly Cloudy
3:30 PM 68.0 °F 48.2 °F 49% 29.92 in 6.2 mi WNW 10.4 mph - N/A   Mostly Cloudy
4:00 PM 68.0 °F 46.4 °F 46% 29.92 in 6.2 mi NW 9.2 mph - N/A   Mostly Cloudy
4:30 PM 69.8 °F 50.0 °F 49% 29.92 in 6.2 mi NW 9.2 mph - N/A   Mostly Cloudy
5:00 PM 69.8 °F 48.2 °F 46% 29.92 in 6.2 mi NNW 9.2 mph - N/A   Mostly Cloudy
5:30 PM 69.8 °F 46.4 °F 43% 29.92 in 6.2 mi NNW 8.1 mph - N/A   Scattered Clouds
6:00 PM 69.8 °F 51.8 °F 53% 29.92 in 6.2 mi NNW 11.5 mph - N/A   Scattered Clouds
6:30 PM 68.0 °F 46.4 °F 46% 29.92 in 6.2 mi NNW 10.4 mph - N/A   Unknown
7:00 PM 66.2 °F 48.2 °F 52% 29.92 in 6.2 mi North 11.5 mph - N/A   Unknown
7:30 PM 64.4 °F 50.0 °F 59% 29.92 in 6.2 mi North 9.2 mph - N/A   Unknown
8:00 PM 62.6 °F 50.0 °F 63% 29.95 in 6.2 mi North 9.2 mph - N/A   Unknown
8:30 PM 62.6 °F 51.8 °F 68% 29.95 in 6.2 mi NNW 4.6 mph - N/A   Unknown
9:00 PM 60.8 °F 51.8 °F 72% 29.95 in 6.2 mi NW 3.5 mph - N/A   Unknown
9:30 PM 60.8 °F 51.8 °F 72% 29.95 in 6.2 mi WNW 3.5 mph - N/A   Mostly Cloudy
10:00 PM 60.8 °F 53.6 °F 77% 29.98 in 6.2 mi WNW 3.5 mph - N/A   Overcast
10:30 PM 60.8 °F 53.6 °F 77% 29.98 in 6.2 mi Variable 3.5 mph - N/A   Overcast
11:00 PM 59.0 °F 53.6 °F 82% 29.98 in 6.2 mi West 3.5 mph - N/A   Unknown
11:30 PM 60.8 °F 53.6 °F 77% 29.98 in 6.2 mi WNW 2.3 mph - N/A   Overcast